Other Public Products
Issued by NWS Charleston, SC

Current Version | Previous Version | Graphics & Text | Print | Product List | Glossary On
Versions: 1 2 3 4 5 6 7 8 9 10 11 12 13 14 15 16 17 18 19 20 21 22 23 24 25 26 27 28 29 30 31 32 33 34 35 36 37 38 39 40 41 42 43 44 45 46 47 48 49 50
000 FPUS82 KCHS 260427 OPUCHS TEST...KCHS/KSAV Gateway Observations...TEST National Weather Service Charleston SC 1200 AM EDT TUE SEP 26 2017 NOTE: "fair" indicates few or no clouds below 12,000 feet with no significant weather and/or obstructions to visibility. SCZ050-WAZ558-NCZ071-TXZ119-213-PAZ071-DCZ001-FLZ074-172-MI076- NYZ176-178-MAZ016-IL014-TNZ027-NJZ106-GAZ044-MD014-260500- ...Gateway Observations for Charleston International... CITY SKY/WX TMP DP RH WIND PRES REMARKS Chas Airport MOCLDY 73 69 87 N5 29.88S Seattle CLOUDY 63 53 70 CALM 30.12S Charlotte MOCLDY 69 66 90 N7 29.96F Dallas DFW CLOUDY 84 65 52 SE12 29.85R Dallas Love CLOUDY 84 65 52 SE13 29.87R Philladelphia CLOUDY 71 63 75 SE5 30.03R Wash National MOCLDY 76 67 73 NE8 30.02S Baltimore MOCLDY 72 66 81 SE3 30.03R Miami CLOUDY 83 76 79 CALM 29.88F HX 91 Detroit MOCLDY 74 70 87 CALM 29.99F Newark PTCLDY 71 65 81 CALM 30.03S Laguardia PTCLDY 71 66 84 CALM 30.02F J F K PTCLDY 68 65 90 NE5 30.04S Boston Logan MOCLDY 65 65 100 NE3 30.05F Ft. Lauderdale CLOUDY 81 77 88 SW5 29.87F Chicago O`Hare PTCLDY 76 58 53 S5 29.93S Chicago Midway PTCLDY 81 57 43 SE7 29.94S Houston Bush PTCLDY 76 72 87 SE5 29.86R Houston Hobby PTCLDY 80 72 76 CALM 29.85R Nashville CLEAR 73 67 81 CALM 29.97S Atlanta CLEAR 74 62 66 CALM 29.98R $$ GAZ044-118-TXZ119-213-NCZ071-DCZ001-MDZ014-506-PAZ021-071-NJZ106- NYZ176-178-MAZ106-OHZ011-021-055-MIZ076-KYZ091-ILZ014-INZ047- MNZ060-ONZ431-260500- ...Gateway Observations for Savannah International... CITY SKY/WX TMP DP RH WIND PRES REMARKS Savannah Arpt CLEAR 71 68 90 CALM 29.90F Atlanta CLEAR 74 62 66 CALM 29.98R Charlotte MOCLDY 69 66 90 N7 29.96F Dallas DFW CLOUDY 84 65 52 SE12 29.85R Houston Bush PTCLDY 76 72 87 SE5 29.86R Wash National MOCLDY 76 67 73 NE8 30.02S Wash Dulles MOCLDY 73 67 81 E7 30.02S Baltimore MOCLDY 72 66 81 SE3 30.03R Philadelphia CLOUDY 71 63 75 SE5 30.03R Newark PTCLDY 71 65 81 CALM 30.03S Laguardia PTCLDY 71 66 84 CALM 30.02F J F K PTCLDY 68 65 90 NE5 30.04S Boston MOCLDY 65 65 100 NE3 30.05F Pittsburg CLOUDY 70 64 81 W5 30.03S Akron MOCLDY 73 59 61 S3 30.03S Cleveland MOCLDY 75 62 64 S7 30.02S Cincinnati PTCLDY 72 66 81 S3 30.00S Columbus CLOUDY 69 64 83 CALM 30.00S Detroit MOCLDY 74 70 87 CALM 29.99F Chicago O`Hare PTCLDY 76 58 53 S5 29.93S Minneapolis CLOUDY 59 58 96 NW8 29.97S Indianapolis CLEAR 73 63 70 SW5 29.98F Toronto Canada PTCLDY 73 66 78 NE2 30.00F $$

USA.gov is the U.S. government's official web portal to all federal, state and local government web resources and services.